Regional Weather Roundup
Issued by NWS

Home | Current Version | Previous Version | Graphics & Text | Print | Product List | Glossary On
Versions: 1 2 3 4 5 6 7 8 9 10 11 12 13 14 15 16 17 18 19 20 21 22 23 24 25 26 27 28 29 30 31 32 33 34 35 36 37 38 39 40 41 42 43 44 45 46 47 48 49 50
000
ASUS43 KFSD 142010
RWRSD

WEATHER ROUNDUP FOR SOUTH DAKOTA
NATIONAL WEATHER SERVICE SIOUX FALLS SD
300 PM CDT SUN SEP 14 2014

NOTE: "FAIR" INDICATES FEW OR NO CLOUDS BELOW 12,000 FEET WITH NO
SIGNIFICANT WEATHER AND/OR OBSTRUCTIONS TO VISIBILITY.


SDZ001>005-009-010-012>017-142100-
NORTHWEST AND NORTH CENTRAL SOUTH DAKOTA

CITY           SKY/WX    TMP DP  RH WIND       PRES   REMARKS
BUFFALO          N/A     59  36  42 E7        30.06F
FAITH            N/A     53  37  54 SE7       30.14F
MOBRIDGE       PTSUNNY   56  41  57 CALM      30.13F
$$

SDZ012>016-024>037-041>051-057-063-072>074-142100-
SOUTHWEST AND SOUTH CENTRAL SOUTH DAKOTA

CITY           SKY/WX    TMP DP  RH WIND       PRES   REMARKS
RAPID CTY ARPT CLOUDY    51  37  58 SE8       30.13F
PIERRE         CLOUDY    55  38  52 NE7       30.13F
CUSTER         CLOUDY    48  36  63 E8        30.11F
ELLSWORTH AFB  CLOUDY    52  38  58 SE8       30.12F
PHILIP         CLOUDY    54  37  52 E10       30.13F
PINE RIDGE     CLOUDY    60  44  55 E10       30.07F
WINNER         CLOUDY    62  44  51 E12       30.11F
$$

SDZ004>011-016>023-039-040-142100-
NORTHEAST SOUTH DAKOTA

CITY           SKY/WX    TMP DP  RH WIND       PRES   REMARKS
ABERDEEN       PTSUNNY   57  39  51 NW8       30.14F
WATERTOWN      PTSUNNY   58  38  47 NW7       30.13F
SISSETON         N/A     61  42  49 NW7       30.12F
$$

SDZ017-020-022-023-036>040-048>070-142100-
SOUTHEAST SOUTH DAKOTA

CITY           SKY/WX    TMP DP  RH WIND       PRES   REMARKS
SIOUX FALLS    CLOUDY    64  41  42 CALM      30.12F
HURON          CLOUDY    58  39  49 NE5       30.14F
CHAMBERLAIN    CLOUDY    58  41  51 E3        30.13F
MITCHELL       CLOUDY    60  44  55 N7        30.14F
YANKTON        MOSUNNY   64  45  48 E3        30.11F
$$

ABBREVIATIONS USED IN REMARKS
   TC - TEMPERATURE IN CELSIUS
  WCI - WIND CHILL INDEX
   HX - HEAT INDEX
  VSB - VISIBILITY



USA.gov is the U.S. government's official web portal to all federal, state and local government web resources and services.